This demonstration page uses our WeatherBlox Daily Observations layout. Learn more.

Hourly Observations for March 27, 2017

Temp ( °F °C ) Dew Point ( °F °C ) Humidity (%) Winds ( mph kmh ) Pressure ( in mb ) Visibility ( mi km ) Precip ( " mm )
12:15 am 00:15 Cloudy 42 5.6 41 4.9 95 95 Calm 29.97 1015 7 11.26538 0 0
12:35 am 00:35 Cloudy 42 5.8 41 5.1 95 95 NW 3 6 29.97 1015 7 11.26538 0 0
12:55 am 00:55 Cloudy 43 5.9 41 5.1 95 95 NNW 5 7 29.97 1015 7 11.26538 0 0
1:15 am 01:15 Cloudy 43 6.2 42 5.5 95 95 N 3 6 29.97 1015 7 11.26538 0 0
1:35 am 01:35 Cloudy 43 6 41 5.2 95 95 N 5 7 29.97 1015 7 11.26538 0 0
1:55 am 01:55 Cloudy 43 6 41 5.2 95 95 N 6 9 29.97 1015 7 11.26538 0 0
2:15 am 02:15 Cloudy 43 6 41 5.1 94 94 N 5 7 29.97 1015 7 11.26538 0 0
2:35 am 02:35 Mostly Cloudy with Mist and Fog 41 5.2 40 4.5 95 95 N 3 6 30 1016 5 8.0467 0 0
2:55 am 02:55 Partly Cloudy with Mist and Fog 40 4.5 39 3.8 95 95 Calm 30 1016 4 6.43736 0 0
3:15 am 03:15 Mostly Cloudy with Mist and Fog 38 3.5 37 2.7 95 95 Calm 29.97 1015 0.75 1.207005 0 0
3:35 am 03:35 Mostly Cloudy with Fog 38 3.5 37 2.9 96 96 N 3 6 29.97 1015 0.25 0.402335 0 0
3:55 am 03:55 Mostly Cloudy with Mist and Fog 36 2.4 35 1.8 96 96 N 3 6 29.97 1015 0.75 1.207005 0 0
4:15 am 04:15 Cloudy with Fog 37 2.9 36 2.3 96 96 NNE 3 6 30 1016 0.25 0.402335 0 0
4:35 am 04:35 Cloudy with Fog 39 4 38 3.5 97 97 N 3 6 30 1016 0.25 0.402335 0 0
4:55 am 04:55 Cloudy with Fog 40 4.4 39 3.9 97 97 NNE 3 6 30 1016 0.25 0.402335 0 0
5:15 am 05:15 Cloudy with Fog 41 5 40 4.5 97 97 NNE 3 6 30 1016 0.25 0.402335 0 0
5:35 am 05:35 Cloudy with Mist and Fog 42 5.5 41 5 97 97 ENE 6 9 29.97 1015 0.75 1.207005 0 0
5:55 am 05:55 Cloudy with Mist and Fog 42 5.7 41 5.2 97 97 NE 5 7 29.97 1015 2.5 4.02335 0 0
6:15 am 06:15 Cloudy with Fog 42 5.5 41 5 97 97 NE 5 7 29.97 1015 0.5 0.80467 0 0
6:35 am 06:35 Cloudy with Fog 42 5.5 41 5 97 97 E 3 6 29.97 1015 0.5 0.80467 0 0
6:55 am 06:55 Cloudy with Fog 41 5.1 40 4.7 97 97 Calm 30 1016 0.25 0.402335 0 0
7:15 am 07:15 Cloudy with Fog 40 4.7 40 4.3 97 97 Calm 30 1016 0.25 0.402335 0 0
7:35 am 07:35 Cloudy with Fog 39 3.8 38 3.5 98 98 Calm 30 1016 0.25 0.402335 0 0
7:55 am 07:55 Cloudy with Fog 38 3.5 38 3.1 97 97 Calm 30 1016 5 8.0467 0 0
8:15 am 08:15 Cloudy with Fog 39 3.9 38 3.5 97 97 Calm 30 1016 5 8.0467 0 0
8:35 am 08:35 Cloudy with Fog 40 4.6 40 4.2 97 97 Calm 30.03 1017 5 8.0467 0 0
8:55 am 08:55 Cloudy with Fog 40 4.5 39 4.1 97 97 Calm 30.03 1017 5 8.0467 0 0
9:15 am 09:15 Cloudy with Fog 40 4.7 40 4.3 97 97 Calm 30.03 1017 5 8.0467 0 0
9:35 am 09:35 Cloudy with Fog 41 5.2 41 4.8 97 97 E 3 6 30.03 1017 0.25 0.402335 0 0
9:55 am 09:55 Cloudy with Fog 41 5.2 41 4.9 98 98 ENE 3 6 30.03 1017 0.25 0.402335 0 0
10:15 am 10:15 Cloudy with Fog 41 5.1 40 4.7 97 97 Calm 30.03 1017 0.25 0.402335 0 0
10:35 am 10:35 Cloudy with Fog 41 5.2 41 4.8 97 97 Calm 30.06 1018 0.5 0.80467 0 0
10:55 am 10:55 Cloudy with Mist and Fog 42 5.6 41 5.2 97 97 NE 3 6 30.06 1018 5 8.0467 0 0
11:15 am 11:15 Cloudy 42 5.8 42 5.5 98 98 ESE 3 6 30.06 1018 7 11.26538 0 0
11:35 am 11:35 Cloudy 43 6.2 43 5.9 98 98 E 3 6 30.03 1017 10 16.0934 0 0
11:55 am 11:55 Cloudy 44 6.5 43 6.1 97 97 SE 3 6 30 1016 10 16.0934 0 0
12:15 pm 12:15 Cloudy 44 6.7 43 6.3 97 97 Calm 30 1016 10 16.0934 0 0
12:35 pm 12:35 Cloudy 45 7.1 44 6.6 97 97 ESE 5 7 30 1016 10 16.0934 0 0
12:55 pm 12:55 Cloudy 46 7.6 45 7 96 96 E 3 6 30 1016 10 16.0934 0 0
1:15 pm 13:15 Cloudy 46 8 45 7.4 96 96 Calm 30 1016 10 16.0934 0 0
1:35 pm 13:35 Partly Cloudy 48 9.1 47 8.3 95 95 Calm 29.97 1015 10 16.0934 0 0
1:55 pm 13:55 Mostly Cloudy 53 11.4 44 6.5 72 72 Calm 29.97 1015 10 16.0934 0 0
2:15 pm 14:15 Mostly Cloudy 53 11.7 43 6.1 69 69 Calm 29.94 1014 10 16.0934 0 0
2:35 pm 14:35 Partly Cloudy 55 12.8 43 6 64 64 E 6 9 29.91 1013 10 16.0934 0 0
2:55 pm 14:55 Partly Cloudy 56 13.2 42 5.7 61 61 Calm 29.91 1013 10 16.0934 0 0
3:15 pm 15:15 Sunny 57 13.9 42 5.4 57 57 ESE 3 6 29.91 1013 10 16.0934 0 0
3:35 pm 15:35 Sunny 58 14.4 43 6.1 58 58 E 8 13 29.88 1012 10 16.0934 0 0
3:55 pm 15:55 Sunny 58 14.3 42 5.5 56 56 E 6 9 29.88 1012 10 16.0934 0 0
4:15 pm 16:15 Partly Cloudy 58 14.6 42 5.3 54 54 E 6 9 29.88 1012 10 16.0934 0 0
4:35 pm 16:35 Partly Cloudy 59 15 42 5.5 53 53 SE 7 11 29.88 1012 10 16.0934 0 0
4:55 pm 16:55 Sunny 59 14.8 42 5.6 54 54 E 3 6 29.88 1012 10 16.0934 0 0
5:15 pm 17:15 Sunny 59 15 42 5.8 54 54 E 9 15 29.88 1012 10 16.0934 0 0
5:35 pm 17:35 Sunny 59 14.9 42 5.5 54 54 E 8 13 29.88 1012 10 16.0934 0 0
5:55 pm 17:55 Sunny 59 14.9 42 5.5 54 54 E 10 17 29.88 1012 10 16.0934 0 0
6:15 pm 18:15 Sunny 58 14.6 41 5.2 54 54 E 8 13 29.88 1012 10 16.0934 0 0
6:35 pm 18:35 Sunny 58 14.5 41 5.2 54 54 E 9 15 29.88 1012 10 16.0934 0 0
6:55 pm 18:55 Sunny 57 14 42 5.5 57 57 ESE 13 20 29.88 1012 10 16.0934 0 0
7:15 pm 19:15 Sunny 55 13 42 5.8 62 62 ESE 10 17 29.88 1012 10 16.0934 0 0
7:35 pm 19:35 Sunny 54 12 42 5.5 65 65 SE 12 19 29.88 1012 10 16.0934 0 0
7:55 pm 19:55 Sunny 51 10.6 41 5.2 70 70 ESE 12 19 29.91 1013 10 16.0934 0 0
8:15 pm 20:15 Clear 49 9.6 41 5.1 74 74 ESE 9 15 29.91 1013 10 16.0934 0 0
8:35 pm 20:35 Clear 48 8.7 41 5 78 78 ESE 9 15 29.94 1014 10 16.0934 0 0
8:55 pm 20:55 Clear 46 7.9 40 4.6 80 80 ESE 9 15 29.97 1015 10 16.0934 0 0
9:15 pm 21:15 Clear 45 7.3 40 4.5 83 83 SE 10 17 29.97 1015 10 16.0934 0 0
9:35 pm 21:35 Clear 45 7 40 4.6 85 85 ESE 10 17 29.97 1015 10 16.0934 0 0
9:55 pm 21:55 Clear 44 6.5 40 4.7 88 88 ESE 10 17 30 1016 10 16.0934 0 0
10:15 pm 22:15 Clear 43 6.2 40 4.6 90 90 ESE 10 17 30 1016 10 16.0934 0 0
10:35 pm 22:35 Clear 42 5.6 40 4.3 91 91 ESE 9 15 30.03 1017 10 16.0934 0 0
10:55 pm 22:55 Clear 42 5.3 39 4.1 92 92 SE 9 15 30.03 1017 10 16.0934 0 0
11:15 pm 23:15 Clear 40 4.7 39 3.7 93 93 SE 9 15 30.03 1017 7 11.26538 0 0
11:35 pm 23:35 Clear 40 4.7 39 3.8 94 94 SE 10 17 30.03 1017 7 11.26538 0 0
11:55 pm 23:55 Clear 40 4.2 38 3.3 94 94 SE 9 15 30.03 1017 7 11.26538 0 0

Powered by AerisWeather